Printer-friendly version

IAU Minor Planet Center

Minor Planet Center

MPEC 2000-F05: 2000 EE104

The following Minor Planet Electronic Circular may be linked-to from your own Web pages, but must not otherwise be redistributed electronically.


Read MPEC 2000-F04 Read MPEC 2000-F06


M.P.E.C. 2000-F05                                Issued 2000 Mar. 16, 20:27 UT

     The Minor Planet Electronic Circulars contain information on unusual
         minor planets and routine data on comets.  They are published
   on behalf of Commission 20 of the International Astronomical Union by the
          Minor Planet Center, Smithsonian Astrophysical Observatory,
                          Cambridge, MA 02138, U.S.A.

             Prepared using the Tamkin Foundation Computer Network

             BMARSDEN@CFA.HARVARD.EDU or GWILLIAMS@CFA.HARVARD.EDU
          URL http://cfa-www.harvard.edu/iau/mpc.html  ISSN 1523-6714

                                  2000 EE104

Observations:
     K00EA4E* C2000 03 11.28237 13 22 52.87 +11 27 50.3          17.8 R      703
     K00EA4E  C2000 03 11.29824 13 22 51.68 +11 28 09.4          17.8 R      703
     K00EA4E  C2000 03 11.31410 13 22 50.54 +11 28 28.0          17.9 R      703
     K00EA4E  C2000 03 11.32999 13 22 49.40 +11 28 46.6          18.2 R      703
     K00EA4E  C2000 03 11.89377 13 22 16.73 +11 39 31.9          17.3 R      046
     K00EA4E  C2000 03 11.89495 13 22 16.63 +11 39 33.6                      046
     K00EA4E  C2000 03 11.89611 13 22 16.57 +11 39 34.7                      046
     K00EA4E  C2000 03 11.89726 13 22 16.50 +11 39 36.1                      046
     K00EA4E  C2000 03 11.89841 13 22 16.39 +11 39 37.4                      046
     K00EA4E  C2000 03 11.89960 13 22 16.31 +11 39 38.6          17.5 R      046
     K00EA4E  C2000 03 12.27941 13 21 52.13 +11 47 27.1          18.0 R      858
     K00EA4E  C2000 03 12.28426 13 21 51.74 +11 47 34.1          18.1 R      858
     K00EA4E  C2000 03 12.28912 13 21 51.39 +11 47 39.4          17.9 R      858
     K00EA4E  C2000 03 12.44649 13 21 38.89 +11 50 53.8                      670
     K00EA4E  C2000 03 12.44841 13 21 38.73 +11 50 56.0                      670
     K00EA4E  C2000 03 12.90509 13 21 10.15 +12 00 07.4          18.0 R      163
     K00EA4E  C2000 03 12.90925 13 21 09.90 +12 00 12.5          17.7 R      163
     K00EA4E  C2000 03 12.91411 13 21 09.44 +12 00 19.8          17.6 R      163
     K00EA4E  C2000 03 12.91705 13 21 09.22 +12 00 23.0          17.8 R      163
     K00EA4E  C2000 03 13.62126 13 20 17.18 +12 15 38.6                      345
     K00EA4E  C2000 03 13.64412 13 20 15.05 +12 16 09.1                      345
     K00EA4E 1C2000 03 13.73637 13 20 05.16 +12 19 09.9          16.9 R      413
     K00EA4E  C2000 03 13.83606 13 20 01.13 +12 20 05.1          16.9 R      046
     K00EA4E  C2000 03 13.83732 13 20 01.04 +12 20 08.7                      046
     K00EA4E  C2000 03 13.83845 13 20 00.93 +12 20 09.5                      046
     K00EA4E  C2000 03 13.84337 13 20 00.57 +12 20 16.8                      046
     K00EA4E  C2000 03 13.84459 13 20 00.44 +12 20 18.3                      046
     K00EA4E  C2000 03 13.84580 13 20 00.30 +12 20 19.8                      046
     K00EA4E  C2000 03 13.84723 13 20 00.21 +12 20 22.0                      046
     K00EA4E  C2000 03 13.84837 13 20 00.11 +12 20 23.8                      046
     K00EA4E  C2000 03 13.92149 13 19 53.48 +12 22 04.0          18.1        461
     K00EA4E  C2000 03 13.92297 13 19 53.32 +12 22 06.3                      461
     K00EA4E  C2000 03 13.92425 13 19 53.22 +12 22 08.3                      461
     K00EA4E  C2000 03 13.92554 13 19 53.08 +12 22 09.8                      461
     K00EA4E  C2000 03 13.94134 13 19 52.01 +12 22 30.8                      587
     K00EA4E  C2000 03 13.94690 13 19 51.54 +12 22 38.6                      587
     K00EA4E  C2000 03 13.95359 13 19 50.95 +12 22 48.6                      587
     K00EA4E  C2000 03 14.20625 13 19 30.84 +12 28 35.6          18.0 R      850
     K00EA4E  C2000 03 14.22292 13 19 29.19 +12 28 59.8          18.1 R      850
     K00EA4E  C2000 03 14.25208 13 19 26.28 +12 29 38.9          17.7 R      850
     K00EA4E  C2000 03 14.26458 13 19 25.06 +12 29 56.7          18.0 R      850
     K00EA4E  C2000 03 14.68120 13 18 48.82 +12 39 28.4          17.8 V      402
     K00EA4E  C2000 03 14.68238 13 18 48.70 +12 39 30.3                      402
     K00EA4E  C2000 03 14.68357 13 18 48.59 +12 39 31.9                      402
     K00EA4E  C2000 03 14.68475 13 18 48.45 +12 39 33.5                      402
     K00EA4E  C2000 03 15.24829 13 17 59.58 +12 52 45.1          17.7 R      858
     K00EA4E  C2000 03 15.25096 13 17 59.31 +12 52 49.6          17.5 R      858
     K00EA4E  C2000 03 15.25370 13 17 59.01 +12 52 53.3          17.4 R      858
     K00EA4E  C2000 03 15.31369 13 17 52.46 +12 54 24.6                      651
     K00EA4E  C2000 03 15.31622 13 17 52.16 +12 54 28.1          18.1 V      651
     K00EA4E  C2000 03 15.69081 13 17 14.18 +13 04 32.8          17.5 R      422
     K00EA4E  C2000 03 15.69176 13 17 14.05 +13 04 34.1          17.2 R      422
     K00EA4E  C2000 03 15.69245 13 17 13.96 +13 04 35.3          17.3 R      422

Observer details:
046 Klet.  Observers J. Ticha, M. Tichy.  0.57-m f/5.2 reflector + CCD.
163 Roeser Observatory, Luxembourg.  Observer M. Dawson.  0.457-m f/4.5
    reflector + CCD.
345 Sobaeksan Optical Astronomy Observatory.  Observers J.-W. Lee, S.-L. Kim.
    0.61-m reflector + CCD.
402 Dynic Astronomical Observatory.  Observer A. Sugie.  0.60-m f/3.7 reflector
    + CCD.
413 Siding Spring.  Observer R. H. McNaught.  1.0-m f/8 reflector + CCD.
422 Loomberah.  Observer G. J. Garradd.  0.45-m f/5.4 reflector + CCD.
461 JATE Asteroid Survey, Piszkesteto Stn. (Konkoly).  Observers K. Sarneczky,
    L. Kiss, K. Sziladi.  0.60-m Schmidt + CCD.
587 Sormano.  Observers F. Manca, A. Testa.  0.5-m reflector + CCD.
651 Grasslands Observatory, Tucson.  Observer J. E. McGaha.  0.62-m f/5.1
    reflector + CCD.
670 Camarillo.  Observer J. E. Rogers.  0.30-m f/6.7 Helin Telescope + CCD.
703 Catalina Sky Survey.  Observer T. B. Spahr.  0.41-m f/3 Schmidt + CCD.
850 Cordell-Lorenz Observatory, Sewanee.  Observer D. T. Durig.  0.3-m f/5.75
    Schmidt-Cassegrain + CCD.
858 Tebbutt Observatory, Edgewood.  Observer F. B. Zoltowski.  0.3-m f/3.3
    Schmidt-Cassegrain + CCD.

Orbital elements:
2000 EE104                                                           PHA 0.008
Epoch 2000 Feb. 26.0 TT = JDT 2451600.5                 Williams
M 241.46968              (2000.0)            P               Q
n   0.98034549     Peri.  281.08813     +0.60495724     +0.79523124
a   1.0035753      Node    26.26838     -0.69025632     +0.54905444
e   0.2939223      Incl.    5.24044     -0.39695461     +0.25718960
P   1.01           H   20.6           G   0.15
From 53 observations 2000 Mar. 11-15.

Ephemeris:
2000 EE104               a,e,i = 1.00, 0.29, 5                   q = 0.7086
Date    TT    R. A. (2000) Decl.     Delta      r     Elong.  Phase     V
2000 03 07    13 25.77   +10 14.8    0.199    1.164   146.3    28.2    18.7
2000 03 12    13 22.14   +11 42.2    0.170    1.145   150.9    25.0    18.2
2000 03 17    13 14.94   +13 37.2    0.141    1.125   155.2    21.8    17.7
2000 03 22    13 02.40   +16 11.6    0.115    1.104   158.2    19.6    17.1
2000 03 27    12 40.79   +19 46.6    0.090    1.082   157.2    20.9    16.6
2000 04 01    12 01.83   +24 53.5    0.069    1.059   148.9    29.2    16.2
2000 04 06    10 46.25   +31 33.5    0.051    1.035   130.2    47.6    16.0
2000 04 11    08 29.65   +35 05.4    0.043    1.010    99.3    78.3    16.5
2000 04 16    06 06.31   +28 06.0    0.047    0.985    65.2   112.3    18.3
2000 04 21    04 42.39   +18 36.5    0.062    0.959    40.5   137.0    20.9
2000 04 26    03 57.40   +12 10.1    0.082    0.932    25.0   152.9    24.0

Gareth V. Williams           (C) Copyright 2000 MPC           M.P.E.C. 2000-F05

Read MPEC 2000-F04 Read MPEC 2000-F06


Our Web policy. Index to the CBAT/MPC/ICQ pages.


Valid HTML 4.01!